Pittsburgh, Pennsylvania, United States (15201)
Lat: 40.44N, Lon: 80W
Wx Zone: PAZ021
Local Info
Past Weather Observations for Today

NOTE: This archive is for the closest National Weather Service station to Pittsburgh. Information may differ from the station used for current weather conditions.

Click here for Long-term Archive

Time Weather Temperature Dewpoint Humidity Pressure Winds Precip Visibility
20:12
Overcast
Fog And Mist
32°F / 0°C 28°F / -2°C 87% 30.01 in
(1016 mb)
NW 4.6 mph
(NW 7 kph)
- 2SM
20:03
Overcast
Fog And Mist
32°F / 0°C 28°F / -2°C 87% 30.01 in
(1016 mb)
NW 3.5 mph
(NW 6 kph)
- 1 1/4SM
19:53
Overcast
Fog And Mist
32°F / 0°C 28°F / -2°C 87% 30.01 in
(1016 mb)
NNW 3.5 mph
(NNW 6 kph)
- 1 1/4SM
19:36
Overcast
Fog And Mist
32°F / 0°C 28°F / -2°C 87% 30.01 in
(1016 mb)
Calm - 3/4SM
19:20
Overcast
Fog And Mist
32°F / 0°C 28°F / -2°C 87% 30.01 in
(1016 mb)
Calm - 1 1/2SM
19:08
Overcast
Fog And Mist
32°F / 0°C 28°F / -2°C 87% 30.01 in
(1016 mb)
NNW 4.6 mph
(NNW 7 kph)
- 1 1/2SM
18:53
Overcast
Fog And Mist
32°F / 0°C 28°F / -2°C 87% 30.01 in
(1016 mb)
NW 3.5 mph
(NW 6 kph)
0.01 in
(0.25 mm)
2SM
18:48
Overcast
Fog And Mist
32°F / 0°C 28°F / -2°C 87% 30.01 in
(1016 mb)
NW 3.5 mph
(NW 6 kph)
0.01 in
(0.25 mm)
1 1/2SM
18:32
Overcast
Light Snow
32°F / 0°C 28°F / -2°C 87% 30.01 in
(1016 mb)
Calm 0.01 in
(0.25 mm)
1 1/4SM
18:23
Overcast
Fog And Mist
32°F / 0°C 28°F / -2°C 87% 30.01 in
(1016 mb)
Calm 0.00 in
(0.00 mm)
2 1/2SM
18:10
Overcast
Fog And Mist
32°F / 0°C 28°F / -2°C 87% 30.01 in
(1016 mb)
Calm 0.00 in
(0.00 mm)
1 1/2SM
17:53
Overcast
Unknown Precip
32°F / 0°C 28°F / -2°C 87% 30.01 in
(1016 mb)
Calm 0.00 in
(0.00 mm)
2SM
17:00
Overcast
Fog And Mist
32°F / 0°C 28°F / -2°C 87% 30.01 in
(1016 mb)
NW 3.5 mph
(NW 6 kph)
- 2SM
16:53
Overcast
Fog And Mist
32°F / 0°C 28°F / -2°C 87% 30.01 in
(1016 mb)
NW 3.5 mph
(NW 6 kph)
0.00 in
(0.00 mm)
1 3/4SM
16:29
Overcast
Fog And Mist
32°F / 0°C 28°F / -2°C 87% 30.01 in
(1016 mb)
NNW 3.5 mph
(NNW 6 kph)
0.00 in
(0.00 mm)
1SM
16:15
Overcast
Fog And Mist
32°F / 0°C 28°F / -2°C 87% 30.01 in
(1016 mb)
Calm 0.00 in
(0.00 mm)
3/4SM
16:07
Overcast
Fog And Mist
32°F / 0°C 28°F / -2°C 87% 30.01 in
(1016 mb)
Calm 0.00 in
(0.00 mm)
1SM
15:53
Overcast
Light Snow
32°F / 0°C 28°F / -2°C 87% 30.01 in
(1016 mb)
NNW 3.5 mph
(NNW 6 kph)
0.00 in
(0.00 mm)
3/4SM
14:53
Overcast
Light Snow
32°F / 0°C 28°F / -2°C 87% 30.01 in
(1016 mb)
N 4.6 mph
(N 7 kph)
0.01 in
(0.25 mm)
3/4SM
13:53
Overcast
Light Snow
32°F / 0°C 28°F / -2°C 87% 30.01 in
(1016 mb)
N 4.6 mph
(N 7 kph)
0.02 in
(0.51 mm)
3/4SM
13:05
Overcast
Light Snow
30°F / -1°C 28°F / -2°C 93% 30.01 in
(1016 mb)
N 4.6 mph
(N 7 kph)
0.01 in
(0.25 mm)
1/2SM
12:53
Overcast
Snow
30°F / -1°C 28°F / -2°C 93% 30.01 in
(1016 mb)
N 5.8 mph
(N 9 kph)
0.03 in
(0.76 mm)
1/4SM
12:49
Overcast
Snow
30°F / -1°C 28°F / -2°C 93% 30.01 in
(1016 mb)
N 5.8 mph
(N 9 kph)
0.03 in
(0.76 mm)
1/4SM
11:53
Overcast
Light Snow
30°F / -1°C 28°F / -2°C 93% 30.04 in
(1017 mb)
N 4.6 mph
(N 7 kph)
0.02 in
(0.51 mm)
1/2SM
10:53
Overcast
Light Snow
30°F / -1°C 27°F / -3°C 86% 30.06 in
(1018 mb)
Calm 0.05 in
(1.27 mm)
1/2SM
10:51
Overcast
Light Snow
30°F / -1°C 27°F / -3°C 86% 30.06 in
(1018 mb)
N 3.5 mph
(N 6 kph)
0.05 in
(1.27 mm)
1/2SM
10:27
Overcast
Snow
30°F / -1°C 27°F / -3°C 86% 30.06 in
(1018 mb)
N 3.5 mph
(N 6 kph)
0.04 in
(1.02 mm)
1/4SM
10:20
Overcast
Heavy Snow
30°F / -1°C 27°F / -3°C 86% 30.06 in
(1018 mb)
N 4.6 mph
(N 7 kph)
0.03 in
(0.76 mm)
1/4SM
09:53
Overcast
Light Snow
30°F / -1°C 27°F / -3°C 86% 30.06 in
(1018 mb)
N 4.6 mph
(N 7 kph)
0.00 in
(0.00 mm)
3/4SM
09:45
Overcast
Light Snow
30°F / -1°C 27°F / -3°C 86% 30.06 in
(1018 mb)
N 4.6 mph
(N 7 kph)
0.00 in
(0.00 mm)
3SM
08:53
Overcast
32°F / 0°C 25°F / -4°C 75% 30.04 in
(1017 mb)
NNW 6.9 mph
(NNW 11 kph)
- 8SM
07:53
Overcast
32°F / 0°C 23°F / -5°C 69% 30.06 in
(1018 mb)
N 4.6 mph
(N 7 kph)
- 10SM
06:53
Overcast
34°F / 1°C 23°F / -5°C 65% 30.06 in
(1018 mb)
Variable 3.5 mph
(Variable 6 kph)
- 10SM
05:53
Clear
34°F / 1°C 23°F / -5°C 65% 30.06 in
(1018 mb)
ENE 5.8 mph
(ENE 9 kph)
- 10SM
04:53
Clear
32°F / 0°C 23°F / -5°C 69% 30.09 in
(1019 mb)
NE 3.5 mph
(NE 6 kph)
- 10SM
03:53
Clear
32°F / 0°C 23°F / -5°C 69% 30.09 in
(1019 mb)
NE 3.5 mph
(NE 6 kph)
- 10SM
02:53
Clear
34°F / 1°C 21°F / -6°C 60% 30.15 in
(1021 mb)
E 3.5 mph
(E 6 kph)
- 10SM
01:53
Clear
34°F / 1°C 21°F / -6°C 60% 30.12 in
(1020 mb)
Calm - 10SM
00:53
Clear
34°F / 1°C 21°F / -6°C 60% 30.18 in
(1022 mb)
Calm - 10SM
Time Weather Temperature Dewpoint Humidity Pressure Winds Precip Visibility


Weather for websites

WeatherForYou.com, LLC is not responsible for any damages or problems caused by this service. Current weather conditions are obtained from the closest station including government and personal stations which may have varying degrees of accuracy. Weather forecasts are derived from the NOAA NDFD. Like all things, this site belongs to Jesus Christ... He just trusts me to maintain it. If you have any questions or comments email webmaster@weatherforyou.com

Copyright © 2014, WeatherForYou.com LLC. All rights reserved.